Regional Weather Roundup
Issued by NWS

Home | Current Version | Previous Version | Text Only | Print | Product List | Glossary Off
Versions: 1 2 3 4 5 6 7 8 9 10 11 12 13 14 15 16 17 18 19 20 21 22 23 24 25 26 27

000
ASUS45 KCYS 272110
RWRWY

WYOMING REGIONAL WEATHER ROUNDUP
NATIONAL WEATHER SERVICE CHEYENNE WY
300 PM MDT TUE SEP 27 2016

NOTE:  "FAIR" INDICATES FEW OR NO CLOUDS BELOW 12,000 FEET
WITH NO SIGNIFICANT WEATHER AND/OR OBSTRUCTIONS TO VISIBILITY.

WYZ001-272200-
YELLOWSTONE NATIONAL PARK

CITY           SKY/WX    TMP DP  RH WIND       PRES   REMARKS
LK YELLOWSTONE   N/A     61  46  57 CALM      30.35F
W YELLOWSTONE  NOT AVBL

$$
WYZ002>013-054>058-071-098>099-272200-
NORTHERN WYOMING

CITY           SKY/WX    TMP DP  RH WIND       PRES   REMARKS
JACKSON        NOT AVBL
CODY           FAIR      77  44  30 NE8       30.14F
GREYBULL       FAIR      75  45  34 CALM      30.09F
WORLAND        FAIR      76  42  29 CALM      30.10F
SHERIDAN       FAIR      83  41  22 N10       30.06F
BUFFALO        FAIR      80  36  20 N12       30.13F
GILLETTE       FAIR      79  39  23 N13       30.08F
HULETT         FAIR      79  37  22 NW9G22    30.08S
NEWCASTLE      FAIR      79  32  18 NW15G22   30.08F

$$
WYZ014>020-022>026-101>103-272200-
CENTRAL WYOMING

CITY           SKY/WX    TMP DP  RH WIND       PRES   REMARKS
BIG PINEY      FAIR      71  34  25 N6        30.28F
PINEDALE       FAIR      72  30  21 SW3       30.29F
DUBOIS         FAIR      72  27  18 N8        30.26F
LANDER         FAIR      75  40  28 N8        30.18F
RIVERTON       FAIR      71  47  42 N3        30.19F
CASPER         FAIR      78  36  21 W6        30.15F
DOUGLAS        FAIR      81  33  17 NW15G21   30.13F

$$
WYZ021-027>030-104>119-272200-
SOUTHERN WYOMING

CITY           SKY/WX    TMP DP  RH WIND       PRES   REMARKS
EVANSTON       FAIR      72  33  24 N5        30.29F
FORT BRIDGER   FAIR      72  32  22 N7        30.32F
ROCK SPRINGS   FAIR      69  35  28 VRB3      30.28F
DIXON          FAIR      72  37  27 W8        30.29F
RAWLINS        FAIR      72  32  23 SW10G17   30.27F
SARATOGA         N/A     72  32  23 NW8G16    30.28F
LARAMIE        FAIR      72  28  19 N13       30.27F
CHEYENNE       FAIR      78  20  11 N8G23     30.19F
TORRINGTON     FAIR      84  29  13 W9        30.06F
PINE BLUFFS    FAIR      81  25  12 CALM      30.13F

$$




USA.gov is the U.S. government's official web portal to all federal, state and local government web resources and services.